"Pseudo-MPEC" for P115Jev

Created 2020 Sep 19 5:07:21 UT using Find_Orb

Click here for an explanation of pseudo-MPECs

 
 Astrometry: 
     P115Jev  C2020 09 13:3jeyL%1LVbMxAstrometryYwl9h4'Nredacted;hSv#LrCj27WWF51
     P115Jev  C2020 09 13#0)(BU9^]kZ^\MpT.9b*h#9Xi+j.click*jv9][POShere1g58m`F51
     P115Jev  C2020 09 13mUy/_owfor./`9y`!TDFP^)eh2yy.lFn9!GHexplanation;E1$.F51

Station data:
(F51) Pan-STARRS 1, Haleakala  (N20.707235 W156.255910)  US/Hawaii.
   Observers N. Primak, A. Schultz, S. Watters, J. Thiel, T. Goggia. Measurer
   PS1 Science Consortium. 1.8-m Ritchey-Chrétien + CCD.

Orbital elements:  P115Jev
   Perihelion 2021 Feb 20.823906 +/- 110 TT = 19:46:25 (JD 2459266.323906)
Epoch 2020 Sep 13.0 TT = JDT 2459105.5   Earth MOID: 0.0021   AutoNEOCP
M 182.75631152 +/- 120              (J2000 ecliptic)
n   1.10209789 +/- 0.734            Peri.  144.93248 +/- 80
a   0.92823071 +/- 0.412            Node    21.03747 +/- 70
e   0.1087107 +/- 0.252             Incl.    0.75435 +/- 49
P   0.89/326.64d           H 26.6   G  0.15   U 12.5  SR
q 0.82732207 +/- 0.702    Q 1.02913935 +/- 20.3
From 3 observations 2020 Sept. 13 (43.1 min); mean residual 0".05
Residuals in arcseconds: 
200913 F51  .03+  .00     200913 F51  .09-  .01+    200913 F51  .06+  .00     

Ephemerides (geocentric):
Date (UTC) HH   RA              Dec         delta   r     elong  mag " sig PA
---- -- -- --  -------------   -----------  ------ ------ -----  --- ---- ---
2020 09 19 05  19 36 07.718   -28 19 47.13  .05367 1.0280 114.5 22.5 2660  58
2020 09 19 06  19 36 09.873   -28 18 46.94  .05372 1.0280 114.5 22.5 2682  58
2020 09 19 07  19 36 12.033   -28 17 46.84  .05377 1.0280 114.5 22.5 2704  58
2020 09 19 08  19 36 14.197   -28 16 46.83  .05383 1.0280 114.5 22.5 2726  58
2020 09 19 09  19 36 16.366   -28 15 46.92  .05388 1.0279 114.4 22.5 2748  58
2020 09 19 10  19 36 18.540   -28 14 47.09  .05394 1.0279 114.4 22.5 2770  59
2020 09 19 11  19 36 20.719   -28 13 47.36  .05399 1.0279 114.4 22.5 2792  59
2020 09 19 12  19 36 22.902   -28 12 47.72  .05404 1.0279 114.3 22.5 2814  59
2020 09 19 13  19 36 25.090   -28 11 48.17  .05410 1.0279 114.3 22.5 2836  59
2020 09 19 14  19 36 27.282   -28 10 48.71  .05415 1.0279 114.3 22.5 2858  59
2020 09 19 15  19 36 29.479   -28 09 49.33  .05421 1.0279 114.2 22.5 2881  59
2020 09 19 16  19 36 31.681   -28 08 50.05  .05426 1.0279 114.2 22.5 2903  59
2020 09 19 17  19 36 33.887   -28 07 50.86  .05431 1.0278 114.2 22.5 2925  60
2020 09 19 18  19 36 36.098   -28 06 51.76  .05437 1.0278 114.2 22.5 2948  60
2020 09 19 19  19 36 38.314   -28 05 52.74  .05442 1.0278 114.1 22.5 2970  60
2020 09 19 20  19 36 40.534   -28 04 53.82  .05448 1.0278 114.1 22.5 2993  60
2020 09 19 21  19 36 42.758   -28 03 54.98  .05453 1.0278 114.1 22.5 3016  60
2020 09 19 22  19 36 44.987   -28 02 56.23  .05458 1.0278 114.0 22.6 3038  60
2020 09 19 23  19 36 47.221   -28 01 57.57  .05464 1.0278 114.0 22.6 3061  61
2020 09 20 00  19 36 49.459   -28 00 58.99  .05469 1.0278 114.0 22.6 3084  61
2020 09 20 01  19 36 51.701   -28 00 00.51  .05475 1.0278 114.0 22.6 3107  61
2020 09 20 02  19 36 53.948   -27 59 02.11  .05480 1.0277 113.9 22.6 3130  61
2020 09 20 03  19 36 56.200   -27 58 03.79  .05485 1.0277 113.9 22.6 3153  61
2020 09 20 04  19 36 58.456   -27 57 05.57  .05491 1.0277 113.9 22.6 3176  61
2020 09 20 05  19 37 00.716   -27 56 07.43  .05496 1.0277 113.8 22.6 3199  61
2020 09 20 06  19 37 02.981   -27 55 09.37  .05501 1.0277 113.8 22.6 3222  61
2020 09 20 07  19 37 05.250   -27 54 11.40  .05507 1.0277 113.8 22.6 3245  62
2020 09 20 08  19 37 07.523   -27 53 13.52  .05512 1.0277 113.8 22.6 3268  62
2020 09 20 09  19 37 09.801   -27 52 15.72  .05518 1.0277 113.7 22.6 3291  62
2020 09 20 10  19 37 12.084   -27 51 18.01  .05523 1.0276 113.7 22.6 3315  62
2020 09 20 11  19 37 14.370   -27 50 20.38  .05528 1.0276 113.7 22.6 3338  62
2020 09 20 12  19 37 16.661   -27 49 22.84  .05534 1.0276 113.6 22.6 3362  62
2020 09 20 13  19 37 18.956   -27 48 25.38  .05539 1.0276 113.6 22.6 3385  62
2020 09 20 14  19 37 21.256   -27 47 28.00  .05545 1.0276 113.6 22.6 3409  63
2020 09 20 15  19 37 23.559   -27 46 30.71  .05550 1.0276 113.6 22.6 3432  63
2020 09 20 16  19 37 25.867   -27 45 33.50  .05555 1.0276 113.5 22.6 3456  63
2020 09 20 17  19 37 28.179   -27 44 36.37  .05561 1.0276 113.5 22.6 3480  63
2020 09 20 18  19 37 30.496   -27 43 39.33  .05566 1.0275 113.5 22.6 3503  63
2020 09 20 19  19 37 32.817   -27 42 42.37  .05571 1.0275 113.4 22.6 3527  63
2020 09 20 20  19 37 35.141   -27 41 45.49  .05577 1.0275 113.4 22.6 3551  63
2020 09 20 21  19 37 37.470   -27 40 48.70  .05582 1.0275 113.4 22.6 3575  64
2020 09 20 22  19 37 39.804   -27 39 51.98  .05588 1.0275 113.4 22.6 3599  64
2020 09 20 23  19 37 42.141   -27 38 55.35  .05593 1.0275 113.3 22.6 3623  64
2020 09 21 00  19 37 44.482   -27 37 58.80  .05598 1.0275 113.3 22.6 3647  64
2020 09 21 01  19 37 46.828   -27 37 02.33  .05604 1.0274 113.3 22.6 3672  64
2020 09 21 02  19 37 49.178   -27 36 05.94  .05609 1.0274 113.2 22.6 3696  64
2020 09 21 03  19 37 51.531   -27 35 09.63  .05614 1.0274 113.2 22.6 3720  64
2020 09 21 04  19 37 53.889   -27 34 13.40  .05620 1.0274 113.2 22.6 3745  64